Starlink 11415

operational
NORAD ID: 62592 Int'l Des: 2025-008 Owner: SPXS Country: US Constellation: starlink
LEOCIRCULAR

Starlink 11415について

説明を読み込み中...

リアルタイム位置

3D地球を読み込み中...

次回通過

高度履歴

Altitude vs Time

uPlot chart will show altitude changes over time

軌道要素

1 62592U 25008F 25306.35431012 .00262834 00000-0 19756-2 0 9999
2 62592 43.0013 174.0626 0002368 277.1220 82.9378 15.70985656 47193
Epoch: Nov 2, 2025 • Age: 34 hours

現在のステータス

高度 358.5 km
速度 7.70 km/s
衛星直下点 43.07°N, 60.02°W
打ち上げ日 Jan 13, 2025
運用期間 0.8 years
タイプ internet

技術仕様

分類 Payload
質量 960.00 kg
乾燥質量 910.00 kg
総質量 960.00 kg
長さ 0.30 m
直径 4.10 m
スパン 29.00 m
形状 Box + pan
製造者 SPXS
バスタイプ Starlink V2MD
フェーズステータス In Orbit
所有者/国 SPXS/US

大規模コンステレーション

Loading constellations...